DW7980 Weather Reports


Display with metric or nautical units.
time (UTC)temp
F
wind
direction
speed
MPH
gust
MPH
rain 1hr
in
rain 24hr
in
rain mn
in
humidity
%
barometer
mb
20260504022039 79 0 0.0 1.0 0.00 0.00 0.00 43 1007.3
20260504021548 80 0 0.0 1.0 0.00 0.00 0.00 42 1007.3
20260504021039 80 0 0.0 1.0 0.00 0.00 0.00 43 1007.3
20260504020540 80 126 0.0 1.0 0.00 0.00 0.00 40 1007.2
20260504020051 80 0 0.0 1.0 0.00 0.00 0.00 40 1007.3
20260504015540 81 0 0.0 1.0 0.00 0.00 0.00 39 1007.3
20260504015039 81 0 0.0 1.0 0.00 0.00 0.00 38 1007.4
20260504014600 81 0 0.0 2.0 0.00 0.00 0.00 38 1007.3
20260504014038 81 0 0.0 2.0 0.00 0.00 0.00 38 1007.2
20260504013539 82 0 0.0 2.0 0.00 0.00 0.00 39 1007.2
20260504013053 82 153 0.0 2.0 0.00 0.00 0.00 38 1007.2
20260504012539 82 0 0.0 2.0 0.00 0.00 0.00 38 1007.4
20260504012039 82 0 0.0 2.0 0.00 0.00 0.00 36 1007.4
20260504011554 83 0 0.0 2.0 0.00 0.00 0.00 35 1007.4
20260504011040 83 0 0.0 2.0 0.00 0.00 0.00 35 1007.4
20260504010538 83 317 0.0 2.0 0.00 0.00 0.00 35 1007.5
20260504010056 83 0 0.0 3.0 0.00 0.00 0.00 35 1007.5
20260504005538 84 0 0.0 3.0 0.00 0.00 0.00 35 1007.5
20260504005038 84 0 0.0 3.0 0.00 0.00 0.00 36 1007.6
20260504004548 85 0 0.0 3.0 0.00 0.00 0.00 33 1007.6
20260504004039 85 9 1.0 4.0 0.00 0.00 0.00 34 1007.7
20260504003541 86 5 0.0 4.0 0.00 0.00 0.00 35 1007.7
20260504003052 86 5 1.0 4.0 0.00 0.00 0.00 35 1007.7
20260504002539 86 46 1.0 3.0 0.00 0.00 0.00 32 1007.8
20260504002039 86 47 0.0 3.0 0.00 0.00 0.00 32 1007.7
20260504001551 86 47 1.0 3.0 0.00 0.00 0.00 32 1007.7
20260504001041 86 17 1.0 3.0 0.00 0.00 0.00 34 1007.7
20260504000541 86 53 0.0 3.0 0.00 0.00 0.00 33 1007.7
20260504000046 86 44 0.0 3.0 0.00 0.00 0.00 34 1007.7
20260503235541 86 44 1.0 3.0 0.00 0.00 0.00 34 1007.7
20260503235038 87 0 0.0 3.0 0.00 0.00 0.00 33 1007.7
20260503234551 87 0 0.0 3.0 0.00 0.00 0.00 30 1007.8
20260503234044 87 0 0.0 3.0 0.00 0.00 0.00 29 1007.8
20260503233537 88 336 1.0 3.0 0.00 0.00 0.00 27 1007.9
20260503233046 88 326 1.0 3.0 0.00 0.00 0.00 28 1008.0
20260503232537 88 340 0.0 3.0 0.00 0.00 0.00 30 1008.1
20260503232041 89 340 1.0 5.0 0.00 0.00 0.00 28 1008.2
20260503231549 90 0 2.0 5.0 0.00 0.00 0.00 30 1008.2
20260503231039 90 57 1.0 4.0 0.00 0.00 0.00 31 1008.3
20260503230537 91 57 1.0 4.0 0.00 0.00 0.00 32 1008.4
20260503230044 91 30 0.0 3.0 0.00 0.00 0.00 28 1008.5
20260503225541 92 360 1.0 3.0 0.00 0.00 0.00 27 1008.7
20260503225041 93 352 1.0 3.0 0.00 0.00 0.00 26 1008.8
20260503224544 94 0 0.0 4.0 0.00 0.00 0.00 24 1008.8
20260503224038 94 13 1.0 4.0 0.00 0.00 0.00 27 1008.8
20260503223539 94 9 1.0 4.0 0.00 0.00 0.00 31 1008.9
20260503223048 95 309 1.0 4.0 0.00 0.00 0.00 24 1008.9
20260503222538 95 5 1.0 4.0 0.00 0.00 0.00 30 1008.9
20260503222038 95 40 1.0 4.0 0.00 0.00 0.00 25 1009.2
20260503221545 94 25 1.0 4.0 0.00 0.00 0.00 31 1009.2
20260503221038 94 55 1.0 4.0 0.00 0.00 0.00 36 1009.2
20260503220538 93 56 1.0 4.0 0.00 0.00 0.00 33 1009.2
20260503220053 93 338 1.0 3.0 0.00 0.00 0.00 32 1009.3
20260503215538 92 326 1.0 3.0 0.00 0.00 0.00 36 1009.4
20260503215039 92 62 1.0 5.0 0.00 0.00 0.00 35 1009.4
20260503214546 91 62 1.0 5.0 0.00 0.00 0.00 29 1009.5
20260503214041 91 51 1.0 5.0 0.00 0.00 0.00 35 1009.6
20260503213538 90 18 1.0 3.0 0.00 0.00 0.00 36 1009.5
20260503213045 90 347 1.0 3.0 0.00 0.00 0.00 33 1009.5
20260503212539 90 55 1.0 4.0 0.00 0.00 0.00 38 1009.6
20260503212039 90 15 1.0 4.0 0.00 0.00 0.00 36 1009.6
20260503211548 90 15 1.0 4.0 0.00 0.00 0.00 34 1009.7
20260503211038 91 336 0.0 3.0 0.00 0.00 0.00 37 1009.7
20260503210538 92 336 1.0 3.0 0.00 0.00 0.00 33 1009.7
20260503210101 92 50 1.0 4.0 0.00 0.00 0.00 35 1009.8
20260503205539 92 50 1.0 4.0 0.00 0.00 0.00 35 1009.9
20260503205039 92 350 1.0 4.0 0.00 0.00 0.00 32 1009.9
20260503204548 91 0 1.0 4.0 0.00 0.00 0.00 37 1010.0
20260503204043 91 5 1.0 3.0 0.00 0.00 0.00 37 1010.1
20260503203539 90 351 1.0 4.0 0.00 0.00 0.00 36 1010.2
20260503203052 90 298 1.0 4.0 0.00 0.00 0.00 40 1010.3
20260503202539 89 360 1.0 5.0 0.00 0.00 0.00 38 1010.4
20260503202038 89 0 2.0 5.0 0.00 0.00 0.00 39 1010.4
20260503201547 89 360 1.0 4.0 0.00 0.00 0.00 41 1010.4
20260503201039 88 59 1.0 4.0 0.00 0.00 0.00 39 1010.5
20260503200542 88 59 2.0 4.0 0.00 0.00 0.00 40 1010.5
20260503200053 89 64 1.0 4.0 0.00 0.00 0.00 37 1010.6
20260503195539 89 0 1.0 3.0 0.00 0.00 0.00 40 1010.7
20260503195040 88 310 1.0 3.0 0.00 0.00 0.00 41 1010.8
20260503194548 88 344 1.0 3.0 0.00 0.00 0.00 42 1010.7
20260503194039 88 0 1.0 3.0 0.00 0.00 0.00 43 1010.8
20260503193539 87 0 1.0 3.0 0.00 0.00 0.00 46 1010.9
20260503193052 86 16 1.0 4.0 0.00 0.00 0.00 43 1010.9
20260503192538 86 329 1.0 4.0 0.00 0.00 0.00 42 1010.9
20260503192037 86 0 1.0 4.0 0.00 0.00 0.00 45 1010.9
20260503191549 85 336 1.0 4.0 0.00 0.00 0.00 45 1011.0
20260503191038 85 51 2.0 5.0 0.00 0.00 0.00 43 1011.0
20260503190541 85 53 2.0 5.0 0.00 0.00 0.00 45 1011.1
20260503190049 85 51 1.0 5.0 0.00 0.00 0.00 46 1011.2
20260503185543 84 0 0.0 3.0 0.00 0.00 0.00 49 1011.3
20260503185038 84 277 1.0 3.0 0.00 0.00 0.00 50 1011.4
20260503184603 83 304 1.0 3.0 0.00 0.00 0.00 49 1011.4
20260503184039 83 31 1.0 3.0 0.00 0.00 0.00 50 1011.5
20260503183541 83 28 1.0 3.0 0.00 0.00 0.00 47 1011.5
20260503183058 83 0 1.0 4.0 0.00 0.00 0.00 45 1011.5
20260503182540 83 64 2.0 4.0 0.00 0.00 0.00 50 1011.5
20260503182040 83 47 1.0 3.0 0.00 0.00 0.00 48 1011.5
20260503181554 82 47 1.0 3.0 0.00 0.00 0.00 48 1011.6
20260503181039 82 22 1.0 3.0 0.00 0.00 0.00 50 1011.5
20260503180539 81 334 0.0 4.0 0.00 0.00 0.00 48 1011.5
20260503180049 81 306 1.0 4.0 0.00 0.00 0.00 50 1011.5
20260503175542 80 40 0.0 5.0 0.00 0.00 0.00 53 1011.5
20260503175039 80 40 0.0 5.0 0.00 0.00 0.00 51 1011.6
20260503174550 79 350 1.0 5.0 0.00 0.00 0.00 48 1011.7
20260503174038 78 348 1.0 2.0 0.00 0.00 0.00 54 1011.8
20260503173538 77 351 0.0 3.0 0.00 0.00 0.00 56 1011.8
20260503173053 76 350 0.0 3.0 0.00 0.00 0.00 59 1011.9
20260503172541 75 65 0.0 2.0 0.00 0.00 0.00 60 1012.0
20260503172038 74 0 0.0 2.0 0.00 0.00 0.00 63 1012.0
20260503171548 72 346 0.0 2.0 0.00 0.00 0.00 69 1012.1
20260503171038 71 346 0.0 2.0 0.00 0.00 0.00 70 1012.1
20260503170541 69 346 0.0 2.0 0.00 0.00 0.00 74 1012.0
20260503150538 52 0 0.0 0.0 0.00 0.00 0.00 91 1012.5
20260503131039 52 0 0.0 2.0 0.00 0.00 0.00 90 1012.1
20260503130538 52 0 0.0 2.0 0.00 0.00 0.00 90 1012.0
20260503110539 53 0 0.0 0.0 0.00 0.00 0.00 89 1012.3
20260503081617 54 0 0.0 0.0 0.00 0.00 0.00 87 1013.0
20260503081038 54 0 0.0 0.0 0.00 0.00 0.00 87 1013.0
20260503080538 54 0 0.0 0.0 0.00 0.00 0.00 87 1013.1
20260503080108 55 0 0.0 0.0 0.00 0.00 0.00 87 1013.1
20260503072539 55 0 0.0 0.0 0.00 0.01 0.00 87 1013.2
20260503072038 55 0 0.0 0.0 0.00 0.01 0.00 86 1013.1
20260503071551 55 0 0.0 0.0 0.00 0.01 0.00 86 1013.2
20260503071038 55 0 0.0 0.0 0.00 0.01 0.00 86 1013.2
20260503070538 56 0 0.0 2.0 0.00 0.01 0.00 86 1013.1
20260503055041 58 0 0.0 1.0 0.00 0.01 0.01 84 1013.1
20260503054554 58 0 0.0 2.0 0.00 0.01 0.01 84 1013.2
20260503054039 58 248 0.0 2.0 0.00 0.01 0.01 84 1013.1
20260503053539 58 0 0.0 2.0 0.00 0.01 0.01 84 1013.2
20260503053047 58 0 0.0 0.0 0.00 0.01 0.01 83 1013.2
20260503052540 59 0 0.0 2.0 0.00 0.01 0.01 83 1013.1
20260503052039 59 0 0.0 2.0 0.00 0.01 0.01 83 1013.2
20260503051557 59 248 1.0 2.0 0.00 0.01 0.01 83 1013.2
20260503051039 59 0 0.0 0.0 0.00 0.01 0.01 83 1013.1
20260503050539 59 0 0.0 2.0 0.00 0.01 0.01 83 1012.9
20260503050054 60 0 0.0 2.0 0.00 0.01 0.01 82 1012.9
20260503045539 60 0 0.0 3.0 0.00 0.01 0.01 82 1012.8
20260503045039 60 0 0.0 3.0 0.00 0.01 0.01 82 1012.9
20260503044610 60 248 0.0 3.0 0.00 0.01 0.01 82 1012.8
20260503044038 60 0 1.0 2.0 0.00 0.01 0.01 82 1012.7
20260503043538 60 351 0.0 2.0 0.00 0.01 0.01 81 1012.8
20260503043050 60 351 0.0 2.0 0.00 0.01 0.01 81 1012.9
20260503042539 60 351 0.0 2.0 0.00 0.01 0.01 81 1013.2
20260503042039 60 0 0.0 1.0 0.00 0.01 0.01 81 1013.1
20260503041551 60 0 0.0 2.0 0.00 0.01 0.01 81 1013.1
20260503041040 61 0 0.0 2.0 0.00 0.01 0.01 81 1012.9
20260503040539 61 276 0.0 2.0 0.00 0.01 0.01 81 1012.8
20260503040050 61 0 0.0 0.0 0.00 0.01 0.01 80 1013.0
20260503035539 61 0 0.0 0.0 0.00 0.01 0.01 80 1012.9
20260503035038 61 0 0.0 2.0 0.00 0.01 0.01 81 1012.8
20260503034550 61 0 0.0 2.0 0.00 0.01 0.01 80 1012.9
20260503034040 61 0 0.0 2.0 0.00 0.01 0.01 80 1012.9
20260503033543 61 0 0.0 2.0 0.00 0.01 0.01 80 1012.9
20260503033100 61 0 0.0 2.0 0.00 0.01 0.01 80 1012.9
20260503032539 61 276 0.0 3.0 0.00 0.01 0.01 80 1013.1
20260503032041 61 0 1.0 3.0 0.00 0.01 0.01 80 1013.1
20260503031555 62 175 0.0 1.0 0.00 0.01 0.01 79 1013.1
20260503031039 62 175 0.0 2.0 0.00 0.01 0.01 79 1012.9
20260503030539 62 175 0.0 2.0 0.00 0.01 0.01 79 1013.0
20260503030042 62 0 0.0 2.0 0.00 0.01 0.01 79 1013.0
20260503025538 62 0 0.0 2.0 0.00 0.01 0.01 79 1012.9
20260503025040 62 0 0.0 4.0 0.00 0.01 0.01 78 1012.8
20260503024610 62 175 1.0 4.0 0.00 0.01 0.01 78 1012.8
20260503024039 62 0 1.0 4.0 0.00 0.01 0.01 78 1012.9
20260503023543 63 76 1.0 3.0 0.00 0.01 0.01 77 1012.7
20260503023047 63 94 0.0 3.0 0.00 0.01 0.01 77 1013.1
20260503022539 63 0 0.0 7.0 0.00 0.01 0.01 76 1013.1